Location: Winthrop
(48.4780°N, 120.1850°W)
Time: 22:53:22
(UTC-07:00)

A-11 Canister half - Pass Details

Date: 07 June 2023
Orbit: 1515 x 1684 km, 47.2° (Epoch: 29 September)

Event Time Altitude Azimuth Distance (km) Brightness Sun altitude
Exits shadow 02:01:35 23° 201° (SSW) 2,925 9.8 -17.4°
Maximum altitude 02:07:15 45° 144° (SE) 2,083 9.4 -17.2°
Drops below altitude 10° 02:16:03 10° 77° (ENE) 3,750 11.4 -16.7°
Sets 02:19:14 0° 71° (ENE) 4,716 12.1 -16.6°
